Weather in Pleasanton

United States     37°40′36″N   121°49′32″W
В апреле 2022 года жителям России запретили посещать сайт meteo.paraplan.net по решению Генеральной прокуратуры. Аудитория сайта уменьшилась в 10 раз. Владельцы сайта не видят смысла в поддержке погодного сервера в таких условиях. Сайт будет закрыт в октябре.
temp.,
°C
wind,
m/s
gust,
m/s
humid.,
%
clouds,
%
prec.,
mm/h
press.,
hPa
HPBL,
m
4 october, tue
tue423:00+14sw34850 0.0 101699
02:00+13sw33880 0.0 101646
05:00+13sw228612 0.0 101522
08:00+14wsw228011 0.0 101658
11:00+23w114329 0.0 1016407
14:00+29w22255 0.0 10141009
17:00+29wsw33271 0.0 1013666
20:00+19sw33560 0.0 101448
5 october, wed
wed523:00+16sw33650 0.0 101552
02:00+15sw22670 0.0 101527
05:00+15wsw22610 0.0 101511
08:00+17wsw11520 0.0 101513
11:00+25nne11300 0.0 1016472
14:00+31nne11200 0.0 10141024
17:00+32w22170 0.0 10121248
20:00+21sw32450 0.0 101432
6 october, thu
thu623:00+19sw22495 0.0 101525
02:00+18sw224625 0.0 101513
05:00+18sw114741 0.0 101511
08:00+18wsw114563 0.0 101611
11:00+27nne212522 0.0 1016449
14:00+32nne111859 0.0 10151052
17:00+32w22185 0.0 10141005
20:00+22sw22433 0.0 101624
7 october, fri
fri723:00+20sw32503 0.0 101727
02:00+19sw22510 0.0 101722
05:00+18wsw114910 0.0 101711
08:00+20wnw01410 0.0 101811
11:00+28nne22240 0.0 1017460
14:00+32nne21160 0.0 1015932
17:00+33wnw22150 0.0 10131208
20:00+24sw22320 0.0 101516
8 october, sat
sat823:00+22sw22350 0.0 101519
02:00+21sw22360 0.0 101515
05:00+20sw11360 0.0 101511
08:00+21se00340 0.0 101511
11:00+29nne11190 0.0 1015431
14:00+34nw12130 0.0 10131181
17:00+32wsw44150 0.0 1012723
20:00+23sw32270 0.0 101425